TJS-10

Last updated on Tue Sep 22 2026 00:03:16 GMT+0000 (Coordinated Universal Time)

1 58204U 23169A 26264.59212471 -.00000252 00000+0 00000+0 0 9999 2 58204 2.7852 79.2432 0004296 131.7527 95.0908 1.00273247 10502
UTC large
Height (km)
Speed (km/s)
/
Latitude / Longitude
Inclination (degrees)
Orbital Period (minutes)
Azimuth
Elevation
Range (km)
Doppler Factor

Next 0 passes for location: London (51.5072 / 0.1276)

No passes found over London.
TJS-10